Location: Briarstone Lake
(43.1454°N, 93.2359°W)
Time: 07:47:44
(UTC+00:00)

BlueWalker 3 - Pass Details

Date: 25 January 2026
Orbit: 450 x 461 km, 53.2° (Epoch: 11 February)

Event Time Altitude Azimuth Distance (km) Brightness Sun altitude
Rises 01:01:13 0° 263° (W) 2,452 7.1 -19.3°
Reaches altitude 10° 01:03:33 10° 275° (W) 1,581 5.6 -19.7°
Maximum altitude 01:06:40 28° 337° (NNW) 871 3.2 -20.3°
Enters shadow 01:07:18 27° 357° (N) 911 3.2 -20.4°
